Regional Weather Roundup
Issued by NWS

Home | Current Version | Previous Version | Graphics & Text | Print | Product List | Glossary On
Versions: 1 2 3 4 5 6 7 8 9 10 11 12 13 14 15 16 17 18 19 20 21 22 23 24 25 26 27 28 29 30 31 32 33 34 35 36 37 38 39 40 41 42 43 44 45 46 47 48 49 50
000
ASUS45 KBOU 051107
RWRCO

WEATHER ROUNDUP FOR COLORADO
NATIONAL WEATHER SERVICE DENVER/BOULDER CO
500 AM MDT TUE MAY 05 2015

NOTE: "FAIR" INDICATES FEW OR NO CLOUDS BELOW 12000 FEET WITH NO
SIGNIFICANT WEATHER AND/OR OBSTRUCTIONS TO VISIBILITY.

COZ001>005-013-030-031-051200-
...NORTHWEST COLORADO...

CITY           SKY/WX    TMP DP  RH WIND       PRES   REMARKS
CRAIG          CLEAR     36  32  85 E3        29.96F
HAYDEN         NOT AVBL
MEEKER         PTCLDY    39  35  86 S3        29.95F
MOUNT WERNER   NOT AVBL
STEAMBOAT SPGS CLEAR     36  33  91 CALM      29.97F
WALDEN         PTCLDY    30  28  93 SE7       30.04S WCI  23
$$

COZ006>008-011-051200-
...WEST CENTRAL VALLEYS...

CITY           SKY/WX    TMP DP  RH WIND       PRES   REMARKS
GRAND JUNCTION CLOUDY    56  43  61 SE16      29.88S
MONTROSE       CLOUDY    50  46  86 CALM      29.94F
EAGLE          MOCLDY    39  37  93 CALM      30.01F
RIFLE          PTCLDY    44  40  85 CALM      29.92F
DELTA          CLOUDY    53  46  76 CALM      29.92F
NUCLA          LGT RAIN  50  43  76 SE3       29.98S
$$

COZ017>023-064>068-051200-
...SOUTHWEST COLORADO...

CITY           SKY/WX    TMP DP  RH WIND       PRES   REMARKS
DURANGO        LGT RAIN  45  44  97 CALM      29.96F FOG
CORTEZ         RAIN      47  46  97 CALM      29.95F
PAGOSA SPRINGS LGT RAIN  43  42  99 CALM      30.01F
TELLURIDE      DRIZZLE   39  38  94 CALM      30.05F
WOLF CREEK PAS NOT AVBL
$$

COZ009-010-012-014-032>034-037-058>063-051200-
...CENTRAL COLORADO...

CITY           SKY/WX    TMP DP  RH WIND       PRES   REMARKS
ASPEN          CLOUDY    39  36  89 S3        29.99F
BUENA VISTA    NOT AVBL
COPPER MTN     CLOUDY    36  30  80 S12       30.17S
BERTHOUD PASS  FAIR      27  18  69 E29G37    30.19F WCI  11
COTTONWOOD PAS LGT RAIN  37  34  87 SE3       30.11F
GUNNISON       CLOUDY    43  37  81 N7        30.03F
KREMMLING      CLOUDY    34  32  93 CALM      30.04S
LEADVILLE      FOG       34  34 100 S9        30.09F VSB 3/4 WCI  27
MONARCH PASS   CLOUDY    30  28  93 MISG      30.25F
SALIDA         CLOUDY    43  41  92 W3        30.13F
SUNLIGHT       MOCLDY    36  34  93 CALM      30.14F
WILKERSON PASS FOG       32  32 100 S6        30.19S VSB 1   WCI  26
$$

COZ069>075-051200-
...SAN LUIS VALLEY/SANGRE DE CRISTO MOUNTAINS...

CITY           SKY/WX    TMP DP  RH WIND       PRES   REMARKS
ALAMOSA        LGT RAIN  43  41  93 SW5       30.01F
LA VETA PASS   LGT RAIN  36  36 100 MISG      30.09F VSB 1/2
SAGUACHE       DRIZZLE   43  41  93 N3        30.03S
$$

COZ035-036-038>040-051200-
...NORTHERN COLORADO FRONT RANGE...

CITY           SKY/WX    TMP DP  RH WIND       PRES   REMARKS
DENVER INTL AP FOG       48  47  96 SE8       30.00F VSB 1/2
DMNS CITY PARK   N/A     48  47  96 E1        30.00S
AURORA         CLOUDY    47  47 100 E6        30.01F
FRONT RANGE AP NOT AVBL
ERIE MUNI ARPT CLOUDY    49  48  97 CALM      30.01S FOG
BOULDER MUN AP CLOUDY    48  48 100 N3        30.01S FOG
CENTENNIAL     CLOUDY    48  47  96 SE5       30.01F
BROOMFIELD     CLOUDY    48  48 100 E3        30.02F FOG
FORT COLLINS   CLOUDY    46  45  93 E12       30.02F VSB 1/2
LONGMONT       CLOUDY    51  49  93 E5        30.03S FOG
$$

COZ041-046-047-076>085-087-088-051200-
...PIKES PEAK/PALMER DIVIDE AND SOUTHERN FOOTHILLS...

CITY           SKY/WX    TMP DP  RH WIND       PRES   REMARKS
COLO. SPRINGS  LGT RAIN  48  48 100 SE12      30.03F FOG
A. F. ACADEMY  CLOUDY    46  46 100 SE1       30.03S
ELLICOTT       CLOUDY   N/A N/A N/A SE10      30.01F FOG
FALCON         LGT RAIN  46  46 100 S7        30.05F
FORT CARSON    DRIZZLE   48  48 100 SE8       30.00F
LIMON          FOG       45  45 100 E12       30.03S VSB 1/2
MONUMENT HILL  CLOUDY    43  43 100 S9        30.03F
TRINIDAD       LGT RAIN  49  48  97 CALM      29.97F FOG
$$

COZ042>045-048>051-090-091-051200-
...NORTHEAST COLORADO...

CITY           SKY/WX    TMP DP  RH WIND       PRES   REMARKS
GREELEY ARPT   CLOUDY    46  43  87 E8        30.02F VSB 3/4
AKRON          CLOUDY    45  45 100 SE9       30.03F FOG
BURLINGTON     FOG       50  49  96 E8        30.01F VSB 1/4
WRAY           CLOUDY   N/A N/A N/A E3        30.04S FOG
STERLING       CLOUDY    46  46 100 E3        30.03F
HOLYOKE        NOT AVBL
FORT MORGAN    FOG       46  45  95 E6        30.03F VSB 3/4
$$

COZ086-089-092>099-051200-
...SOUTHEAST COLORADO...

CITY           SKY/WX    TMP DP  RH WIND       PRES   REMARKS
PUEBLO         CLOUDY    52  51  97 E10       29.97F FOG
LA JUNTA       LGT RAIN  55  53  93 E10       29.97F FOG
LAMAR          LGT RAIN  53  52  96 E12       29.96F FOG
SPRINGFIELD      N/A     53  53 100 E16       29.96F
$$



USA.gov is the U.S. government's official web portal to all federal, state and local government web resources and services.